Regional Weather Roundup
Issued by NWS Sioux Falls, SD

Home | Current Version | Previous Version | Graphics & Text | Print | Product List | Glossary On
Versions: 1 2 3 4 5 6 7 8 9 10 11 12 13 14 15 16 17 18 19 20 21 22 23 24 25 26 27 28 29 30 31 32 33 34 35 36 37 38 39 40 41 42 43 44 45 46 47 48 49 50
000
ASUS43 KFSD 211202
RWRFSD

WEATHER ROUNDUP FOR SE SOUTH DAKOTA/SW MINNESOTA/NW IOWA
NATIONAL WEATHER SERVICE SIOUX FALLS SD
700 AM CDT TUE OCT 21 2014

NOTE: "FAIR" INDICATES FEW OR NO CLOUDS BELOW 12,000 FEET WITH NO
SIGNIFICANT WEATHER AND OR OBSTRUCTIONS TO VISIBILITY.


SDZ038>040-050-052>070-211300-
SOUTHEAST SOUTH DAKOTA

CITY           SKY/WX    TMP DP  RH WIND       PRES   REMARKS
CHAMBERLAIN    CLEAR     45  38  76 SE9       29.95S
6HR MIN TEMP:  45; 6HR MAX TEMP:  51;

HURON          CLEAR     50  36  58 SE14      29.98F
6HR MIN TEMP:  45; 6HR MAX TEMP:  50;

MADISON        FAIR      45  39  81 SE10G16   30.07S
MITCHELL       CLEAR     49  38  65 SE13      30.01F
6HR MIN TEMP:  43; 6HR MAX TEMP:  49;

SIOUX FALLS    CLEAR     41  36  82 SE3       30.09S
6HR MIN TEMP:  37; 6HR MAX TEMP:  44;

WINNER         FAIR      60  39  45 S22       29.92S
YANKTON        CLEAR     41  37  87 E5        30.07R
$$

MNZ071-072-080-081-089-090-097-098-211300-
SOUTHWEST MINNESOTA

CITY           SKY/WX    TMP DP  RH WIND       PRES   REMARKS
FAIRMONT       CLEAR     32  27  80 CALM      30.13S
JACKSON        CLEAR     36  32  87 SE3       30.12F
LUVERNE        CLEAR     36  34  93 CALM      30.11S
MARSHALL       CLEAR     37  32  81 SE7       30.10R
6HR MIN TEMP:  34; 6HR MAX TEMP:  39;

MONTEVIDEO     CLEAR     36  36 100 S8        30.12S
PIPESTONE      CLEAR     48  37  66 S9        30.09S
REDWOOD FALLS  CLEAR     39  36  89 E6        30.13R
TRACY          CLEAR     40  37  86 SE3       30.11S
WINDOM         CLEAR     36  34  93 CALM      30.12S
WORTHINGTON    CLEAR     37  36  93 S3        30.12S
$$

IAZ001>003-012>014-020>022-031-032-NEZ013-014-SDZ071-211300-
NORTHWEST IOWA

CITY           SKY/WX    TMP DP  RH WIND       PRES   REMARKS
CHEROKEE       CLEAR     34  34 100 CALM      30.12S
DENISON        CLEAR     36  36 100 CALM      30.10F
ESTHERVILLE    CLEAR     31  30  96 CALM      30.13R FOG
LE MARS        CLEAR     36  34  93 CALM      30.11F
ORANGE CITY    CLEAR     46  37  71 E3        30.11S
SHELDON        CLEAR     39  36  87 E6        30.10S
SIOUX CITY     CLEAR     37  35  92 SE3       30.11R
6HR MIN TEMP:  35; 6HR MAX TEMP:  41;

SPENCER        CLEAR     32  29  88 CALM      30.12S
6HR MIN TEMP:  30; 6HR MAX TEMP:  37;

STORM LAKE     CLEAR     39  36  87 SE3       30.13S
$$

ABBREVIATIONS USED IN REMARKS
   TC - TEMPERATURE IN CELSIUS
  WCI - WIND CHILL INDEX
   HX - HEAT INDEX
  VSB - VISIBILITY




USA.gov is the U.S. government's official web portal to all federal, state and local government web resources and services.